DW7889 Weather Reports


Display with metric or nautical units.
time (UTC)temp
F
wind
direction
speed
MPH
gust
MPH
rain 1hr
in
rain 24hr
in
rain mn
in
humidity
%
barometer
mb
20260510221039 46 345 5.0 8.0 0.00 0.00 0.00 78 1022.3
20260510220542 46 351 4.0 7.0 0.00 0.00 0.00 77 1022.3
20260510220048 46 2 4.0 8.0 0.00 0.00 0.00 77 1022.2
20260510215530 46 328 5.0 8.0 0.00 0.00 0.00 77 1022.2
20260510215034 46 341 3.0 7.0 0.00 0.00 0.00 76 1022.3
20260510214542 46 326 3.0 9.0 0.00 0.00 0.00 76 1022.0
20260510214029 46 335 4.0 9.0 0.00 0.00 0.00 76 1022.0
20260510213556 46 1 4.0 7.0 0.00 0.00 0.00 76 1022.0
20260510213036 46 359 3.0 7.0 0.00 0.00 0.00 75 1021.9
20260510212541 46 316 4.0 7.0 0.00 0.00 0.00 75 1021.8
20260510212044 47 318 4.0 10.0 0.00 0.00 0.00 74 1021.8
20260510211526 47 360 6.0 10.0 0.00 0.00 0.00 74 1021.7
20260510211030 47 6 4.0 10.0 0.00 0.00 0.00 73 1021.4
20260510210534 47 357 5.0 12.0 0.00 0.00 0.00 73 1021.4
20260510210041 47 337 5.0 12.0 0.00 0.00 0.00 73 1021.5
20260510205546 47 300 6.0 11.0 0.00 0.00 0.00 73 1021.5
20260510205027 47 319 6.0 11.0 0.00 0.00 0.00 72 1021.6
20260510204535 47 313 4.0 11.0 0.00 0.00 0.00 72 1021.7
20260510204039 47 310 6.0 11.0 0.00 0.00 0.00 71 1021.7
20260510203542 48 357 4.0 11.0 0.00 0.00 0.00 71 1021.6
20260510203045 48 1 5.0 11.0 0.00 0.00 0.00 70 1021.6
20260510202528 48 323 4.0 11.0 0.00 0.00 0.00 70 1021.8
20260510202030 48 320 6.0 12.0 0.00 0.00 0.00 68 1021.9
20260510201533 48 306 8.0 14.0 0.00 0.00 0.00 67 1021.9
20260510201055 49 292 7.0 14.0 0.00 0.00 0.00 67 1022.1
20260510200538 49 317 8.0 17.0 0.00 0.00 0.00 67 1022.0
20260510200106 49 351 8.0 17.0 0.00 0.00 0.00 66 1021.8
20260510195527 49 297 9.0 16.0 0.00 0.00 0.00 67 1021.7
20260510195031 49 299 9.0 16.0 0.00 0.00 0.00 66 1021.7
20260510194535 49 297 11.0 16.0 0.00 0.00 0.00 66 1021.5
20260510194037 50 283 9.0 16.0 0.00 0.00 0.00 66 1021.5
20260510193544 50 313 8.0 19.0 0.00 0.00 0.00 65 1021.5
20260510193027 50 301 13.0 19.0 0.00 0.00 0.00 66 1021.4
20260510192531 50 297 7.0 16.0 0.00 0.00 0.00 66 1021.3
20260510192035 50 358 6.0 16.0 0.00 0.00 0.00 66 1021.2
20260510191538 50 329 5.0 16.0 0.00 0.00 0.00 66 1021.3
20260510191040 50 287 7.0 16.0 0.00 0.00 0.00 65 1021.0
20260510190545 50 335 9.0 17.0 0.00 0.00 0.00 66 1021.2
20260510190053 50 290 10.0 17.0 0.00 0.00 0.00 68 1021.1
20260510185552 50 288 9.0 20.0 0.00 0.00 0.00 67 1021.1
20260510185036 50 324 12.0 20.0 0.00 0.00 0.00 66 1021.1
20260510184540 51 342 10.0 16.0 0.00 0.00 0.00 64 1021.2
20260510184042 51 268 8.0 19.0 0.00 0.00 0.00 62 1021.2
20260510183606 52 359 8.0 21.0 0.00 0.00 0.00 62 1021.2
20260510183029 52 301 9.0 17.0 0.00 0.00 0.00 62 1021.2
20260510182532 51 328 7.0 14.0 0.00 0.00 0.00 63 1021.2
20260510182037 51 306 6.0 13.0 0.00 0.00 0.00 63 1021.2
20260510181558 51 314 7.0 14.0 0.00 0.00 0.00 62 1021.0
20260510181101 50 349 7.0 14.0 0.00 0.00 0.00 66 1021.0
20260510180543 50 324 7.0 14.0 0.00 0.00 0.00 66 1021.0
20260510180031 50 290 9.0 16.0 0.00 0.00 0.00 67 1021.2
20260510175534 50 281 8.0 16.0 0.00 0.00 0.00 64 1021.0
20260510175057 51 346 7.0 15.0 0.00 0.00 0.00 64 1021.1
20260510174539 51 348 8.0 15.0 0.00 0.00 0.00 65 1021.2
20260510174103 51 304 8.0 13.0 0.00 0.00 0.00 65 1021.0
20260510173546 51 30 7.0 17.0 0.00 0.00 0.00 63 1021.0
20260510173031 51 321 10.0 17.0 0.00 0.00 0.00 64 1021.0
20260510172535 51 352 8.0 16.0 0.00 0.00 0.00 66 1021.0
20260510172039 50 305 8.0 14.0 0.00 0.00 0.00 67 1021.1
20260510171605 50 290 9.0 13.0 0.00 0.00 0.00 65 1021.1
20260510171027 49 288 8.0 13.0 0.00 0.00 0.00 70 1021.2
20260510170530 49 274 8.0 15.0 0.00 0.00 0.00 68 1021.1
20260510170058 49 13 8.0 16.0 0.00 0.00 0.00 68 1021.2
20260510165538 50 287 8.0 16.0 0.00 0.00 0.00 67 1021.3
20260510165026 50 297 5.0 13.0 0.00 0.00 0.00 67 1021.2
20260510164530 50 333 7.0 14.0 0.00 0.00 0.00 65 1021.2
20260510164032 50 304 8.0 15.0 0.00 0.00 0.00 66 1021.4
20260510163534 49 280 8.0 19.0 0.00 0.00 0.00 68 1021.4
20260510163034 50 279 7.0 19.0 0.00 0.00 0.00 68 1021.5
20260510162537 50 345 6.0 17.0 0.00 0.00 0.00 67 1021.5
20260510162101 50 342 6.0 17.0 0.00 0.00 0.00 68 1021.6
20260510161604 50 309 9.0 16.0 0.00 0.00 0.00 68 1021.7
20260510161045 49 303 7.0 13.0 0.00 0.00 0.00 70 1021.8
20260510160526 49 286 7.0 15.0 0.00 0.00 0.00 70 1021.8
20260510160031 49 307 5.0 18.0 0.00 0.00 0.00 71 1021.9
20260510155532 48 302 10.0 18.0 0.00 0.00 0.00 72 1021.9
20260510155036 48 282 7.0 20.0 0.00 0.00 0.00 71 1022.0
20260510154540 49 314 11.0 18.0 0.00 0.00 0.00 71 1022.0
20260510154027 49 291 4.0 13.0 0.00 0.00 0.00 71 1021.9
20260510153530 48 8 4.0 13.0 0.00 0.00 0.00 74 1022.0
20260510153034 48 280 8.0 14.0 0.00 0.00 0.00 72 1022.2
20260510152539 48 333 5.0 14.0 0.00 0.00 0.00 72 1022.2
20260510152044 48 288 6.0 13.0 0.00 0.00 0.00 73 1022.3
20260510151528 48 297 6.0 12.0 0.00 0.00 0.00 74 1022.4
20260510151032 48 312 6.0 12.0 0.00 0.00 0.00 73 1022.4
20260510150535 48 286 5.0 12.0 0.00 0.00 0.00 73 1022.5
20260510150042 47 359 5.0 16.0 0.00 0.00 0.00 74 1022.5
20260510145545 47 349 9.0 16.0 0.00 0.00 0.00 74 1022.6
20260510145048 47 260 7.0 12.0 0.00 0.00 0.00 74 1022.7
20260510144530 47 289 4.0 13.0 0.00 0.00 0.00 74 1022.8
20260510144034 47 281 8.0 12.0 0.00 0.00 0.00 73 1022.8
20260510143539 47 295 6.0 12.0 0.00 0.00 0.00 74 1022.9
20260510143024 47 293 6.0 14.0 0.00 0.00 0.00 75 1023.0
20260510142531 47 292 9.0 16.0 0.00 0.00 0.00 74 1023.2
20260510142033 47 324 8.0 16.0 0.00 0.00 0.00 75 1023.0
20260510141535 48 287 11.0 15.0 0.00 0.00 0.00 73 1023.0
20260510141037 47 354 6.0 13.0 0.00 0.00 0.00 74 1023.0
20260510140538 47 1 7.0 13.0 0.00 0.00 0.00 72 1023.0
20260510140044 47 360 6.0 13.0 0.00 0.00 0.00 74 1023.0
20260510135527 47 293 9.0 13.0 0.00 0.00 0.00 73 1022.9
20260510135030 47 344 6.0 13.0 0.00 0.00 0.00 74 1022.9
20260510134532 46 316 8.0 14.0 0.00 0.00 0.00 74 1023.0
20260510134037 46 305 8.0 12.0 0.00 0.00 0.00 75 1023.0
20260510133527 46 284 5.0 13.0 0.00 0.00 0.00 76 1023.0
20260510133049 46 311 6.0 11.0 0.00 0.00 0.00 76 1022.9
20260510132533 46 299 6.0 11.0 0.00 0.00 0.00 75 1022.9
20260510132037 46 325 7.0 10.0 0.00 0.00 0.00 76 1023.0
20260510131541 46 310 4.0 10.0 0.00 0.00 0.00 76 1023.0
20260510131044 46 266 6.0 13.0 0.00 0.00 0.00 75 1023.0
20260510130525 46 307 7.0 15.0 0.00 0.00 0.00 74 1022.9
20260510130052 47 274 7.0 15.0 0.00 0.00 0.00 75 1022.9
20260510125534 46 4 6.0 13.0 0.00 0.00 0.00 77 1022.8
20260510125037 45 330 6.0 15.0 0.00 0.00 0.00 79 1022.9
20260510124542 45 314 8.0 15.0 0.00 0.00 0.00 79 1023.1
20260510124045 45 316 5.0 12.0 0.00 0.00 0.00 80 1023.0
20260510123528 44 302 5.0 19.0 0.00 0.00 0.00 81 1022.9
20260510123035 44 359 12.0 19.0 0.00 0.00 0.00 81 1022.9
20260510122538 45 286 7.0 11.0 0.00 0.00 0.00 82 1023.0
20260510122040 44 1 7.0 11.0 0.00 0.00 0.00 84 1023.1
20260510121603 44 308 6.0 10.0 0.00 0.00 0.00 85 1023.2
20260510121047 44 1 5.0 11.0 0.00 0.00 0.00 86 1023.3
20260510120529 43 10 3.0 11.0 0.00 0.00 0.00 88 1023.2
20260510120037 43 16 4.0 10.0 0.00 0.00 0.00 88 1023.1
20260510115600 43 311 6.0 10.0 0.00 0.00 0.00 87 1023.2
20260510115041 43 308 5.0 10.0 0.00 0.00 0.00 88 1023.2
20260510114544 43 299 3.0 5.0 0.00 0.00 0.00 88 1023.2
20260510114028 43 310 3.0 8.0 0.00 0.00 0.00 88 1023.2
20260510113531 43 360 4.0 8.0 0.00 0.00 0.00 89 1023.1
20260510113036 42 319 4.0 6.0 0.00 0.00 0.00 89 1023.1
20260510112542 42 293 3.0 7.0 0.00 0.00 0.00 89 1023.0
20260510112031 42 342 5.0 8.0 0.00 0.00 0.00 89 1023.1
20260510111534 42 299 4.0 8.0 0.00 0.00 0.00 88 1023.1
20260510111038 42 316 4.0 7.0 0.00 0.00 0.00 88 1023.0
20260510110541 42 16 3.0 8.0 0.00 0.00 0.00 88 1023.0
20260510110049 42 307 4.0 8.0 0.00 0.00 0.00 88 1022.8
20260510105531 42 304 4.0 11.0 0.00 0.00 0.00 87 1022.8
20260510105033 43 303 5.0 11.0 0.00 0.00 0.00 87 1022.7
20260510104536 43 300 3.0 7.0 0.00 0.00 0.00 87 1022.8
20260510104041 42 337 4.0 8.0 0.00 0.00 0.00 86 1022.8
20260510103545 43 334 5.0 9.0 0.00 0.00 0.00 86 1022.6
20260510103030 43 323 5.0 9.0 0.00 0.00 0.00 86 1022.6
20260510102553 43 313 4.0 7.0 0.00 0.00 0.00 86 1022.5
20260510102035 43 346 3.0 7.0 0.00 0.00 0.00 86 1022.4
20260510101559 43 340 4.0 8.0 0.00 0.00 0.00 85 1022.3
20260510101026 43 342 3.0 8.0 0.00 0.00 0.00 85 1022.3
20260510100549 43 303 4.0 8.0 0.00 0.00 0.00 85 1022.4
20260510100030 43 358 4.0 8.0 0.00 0.00 0.00 85 1022.3
20260510095536 43 322 4.0 8.0 0.00 0.00 0.00 84 1022.3
20260510095040 43 323 6.0 8.0 0.00 0.00 0.00 83 1022.4
20260510094604 43 307 5.0 9.0 0.00 0.00 0.00 83 1022.4
20260510094026 43 309 5.0 9.0 0.00 0.00 0.00 82 1022.3
20260510093531 43 349 4.0 8.0 0.00 0.00 0.00 82 1022.2
20260510093034 43 332 4.0 8.0 0.00 0.00 0.00 82 1021.9
20260510092540 43 321 3.0 7.0 0.00 0.00 0.00 82 1021.9
20260510092044 43 319 3.0 9.0 0.00 0.00 0.00 82 1021.9
20260510091547 43 333 4.0 9.0 0.00 0.00 0.00 81 1021.9
20260510091032 43 339 5.0 9.0 0.00 0.00 0.00 80 1021.8
20260510090533 43 313 5.0 10.0 0.00 0.00 0.00 80 1021.8
20260510090043 43 359 4.0 10.0 0.00 0.00 0.00 80 1021.8
20260510085529 43 302 3.0 9.0 0.00 0.00 0.00 80 1021.8
20260510085035 43 304 4.0 8.0 0.00 0.00 0.00 80 1021.9
20260510084538 43 300 5.0 8.0 0.00 0.00 0.00 80 1022.0
20260510084040 43 343 4.0 8.0 0.00 0.00 0.00 81 1022.0
20260510083543 43 320 3.0 8.0 0.00 0.00 0.00 80 1021.9
20260510083045 43 323 4.0 9.0 0.00 0.00 0.00 80 1021.9
20260510082526 43 328 4.0 9.0 0.00 0.00 0.00 80 1021.8
20260510082031 43 4 5.0 10.0 0.00 0.00 0.00 80 1021.7
20260510081553 43 356 4.0 10.0 0.00 0.00 0.00 80 1021.7
20260510081035 43 334 4.0 7.0 0.00 0.00 0.00 80 1021.6
20260510080537 43 359 3.0 8.0 0.00 0.00 0.00 81 1021.6
20260510080028 43 337 4.0 9.0 0.00 0.00 0.00 81 1021.7
20260510075532 43 345 5.0 9.0 0.00 0.00 0.00 80 1021.8
20260510075038 43 348 4.0 9.0 0.00 0.00 0.00 81 1021.7
20260510074542 43 310 3.0 9.0 0.00 0.00 0.00 81 1021.7
20260510074027 43 351 5.0 10.0 0.00 0.00 0.00 81 1021.7
20260510073530 43 1 5.0 10.0 0.00 0.00 0.00 81 1021.8
20260510073033 43 6 5.0 8.0 0.00 0.00 0.00 81 1021.7
20260510072534 43 313 3.0 9.0 0.00 0.00 0.00 82 1021.8
20260510072058 43 293 5.0 9.0 0.00 0.00 0.00 82 1021.8
20260510071541 43 345 4.0 8.0 0.00 0.00 0.00 82 1021.8
20260510071044 43 318 4.0 9.0 0.00 0.00 0.00 82 1021.7
20260510070529 43 349 5.0 11.0 0.00 0.00 0.00 82 1021.7
20260510070052 43 292 6.0 10.0 0.00 0.00 0.00 82 1021.7
20260510065537 43 326 5.0 8.0 0.00 0.00 0.00 82 1021.5
20260510065040 44 358 6.0 10.0 0.00 0.00 0.00 82 1021.9
20260510064528 44 323 2.0 10.0 0.00 0.00 0.00 82 1021.7
20260510064035 43 303 3.0 10.0 0.00 0.00 0.00 82 1021.8
20260510063539 43 353 5.0 10.0 0.00 0.00 0.00 82 1021.9
20260510063041 43 331 4.0 12.0 0.00 0.00 0.00 83 1022.0
20260510062525 43 339 7.0 12.0 0.00 0.00 0.00 82 1021.9
20260510062030 43 309 5.0 10.0 0.00 0.00 0.00 83 1022.2
20260510061535 43 323 6.0 11.0 0.00 0.00 0.00 83 1022.3
20260510061059 43 289 5.0 11.0 0.00 0.00 0.00 83 1022.3
20260510060539 43 342 6.0 11.0 0.00 0.00 0.00 83 1022.5
20260510060044 43 335 5.0 8.0 0.00 0.00 0.00 84 1022.4
20260510055545 43 306 5.0 7.0 0.00 0.00 0.00 84 1022.4
20260510055047 44 334 5.0 10.0 0.00 0.00 0.00 84 1022.4
20260510054550 44 333 4.0 12.0 0.00 0.00 0.00 84 1022.4
20260510054030 44 12 5.0 9.0 0.00 0.00 0.00 84 1022.3
20260510053534 44 304 4.0 11.0 0.00 0.00 0.00 84 1022.3
20260510053059 44 359 7.0 11.0 0.00 0.00 0.00 84 1022.2
20260510052545 44 359 5.0 9.0 0.00 0.00 0.00 84 1022.3
20260510052028 44 306 5.0 10.0 0.00 0.00 0.00 85 1022.4
20260510051529 44 283 6.0 10.0 0.00 0.00 0.00 84 1022.4
20260510051031 44 295 5.0 9.0 0.00 0.00 0.00 84 1022.5
20260510050534 44 359 5.0 12.0 0.00 0.00 0.00 84 1022.5
20260510050043 44 322 5.0 12.0 0.00 0.00 0.00 83 1022.5
20260510045608 44 315 5.0 10.0 0.00 0.00 0.00 83 1022.5
20260510045028 44 344 4.0 13.0 0.00 0.00 0.00 83 1022.4
20260510044532 44 340 6.0 12.0 0.00 0.00 0.00 83 1022.5
20260510044036 44 298 5.0 10.0 0.00 0.00 0.00 83 1022.3
20260510043539 44 259 3.0 10.0 0.00 0.00 0.00 83 1022.3
20260510043043 44 300 5.0 13.0 0.00 0.00 0.00 82 1022.4
20260510042529 44 277 7.0 13.0 0.00 0.00 0.00 82 1022.4
20260510042033 44 293 7.0 12.0 0.00 0.00 0.00 82 1022.3
20260510041537 44 309 3.0 11.0 0.00 0.00 0.00 82 1022.3
20260510041041 44 333 5.0 12.0 0.00 0.00 0.00 82 1022.4
20260510040543 44 267 8.0 12.0 0.00 0.00 0.00 83 1022.4
20260510040031 44 314 6.0 9.0 0.00 0.00 0.00 83 1022.3
20260510035534 44 270 4.0 8.0 0.00 0.00 0.00 84 1022.4
20260510035038 44 250 2.0 8.0 0.00 0.00 0.00 84 1022.4
20260510034543 44 293 3.0 8.0 0.00 0.00 0.00 85 1022.4
20260510034028 44 250 2.0 8.0 0.00 0.00 0.00 85 1022.4
20260510033554 44 246 3.0 8.0 0.00 0.00 0.00 85 1022.4
20260510033039 44 278 5.0 8.0 0.00 0.00 0.00 85 1022.4
20260510032527 44 304 2.0 9.0 0.00 0.00 0.00 85 1022.3
20260510032031 44 297 3.0 9.0 0.00 0.00 0.00 85 1022.4
20260510031536 44 273 2.0 9.0 0.00 0.00 0.00 86 1022.3
20260510031042 44 264 4.0 9.0 0.00 0.00 0.00 86 1022.4
20260510030525 44 211 5.0 11.0 0.00 0.00 0.00 86 1022.4
20260510030053 43 309 5.0 11.0 0.00 0.00 0.00 86 1022.4
20260510025538 43 243 3.0 8.0 0.00 0.00 0.00 86 1022.3
20260510025044 43 213 5.0 9.0 0.00 0.00 0.00 86 1022.3
20260510024527 43 293 6.0 9.0 0.00 0.00 0.00 86 1022.3
20260510024032 43 266 5.0 11.0 0.00 0.00 0.00 86 1022.3
20260510023536 43 233 5.0 11.0 0.00 0.00 0.00 86 1022.2
20260510023038 44 232 4.0 9.0 0.00 0.00 0.00 85 1022.1
20260510022526 44 241 4.0 8.0 0.00 0.00 0.00 85 1022.0
20260510022030 44 244 3.0 8.0 0.00 0.00 0.00 85 1022.0
20260510021553 44 217 5.0 11.0 0.00 0.00 0.00 85 1022.0
20260510021036 44 259 7.0 11.0 0.00 0.00 0.00 85 1022.0
20260510020601 44 213 4.0 10.0 0.00 0.00 0.00 85 1022.0
20260510020026 44 210 4.0 11.0 0.00 0.00 0.00 85 1021.9
20260510015529 44 244 5.0 11.0 0.00 0.00 0.00 85 1021.8
20260510015035 44 259 7.0 11.0 0.00 0.00 0.00 85 1021.8
20260510014559 44 235 4.0 11.0 0.00 0.00 0.00 85 1021.7
20260510014040 44 259 7.0 11.0 0.00 0.00 0.00 84 1021.7
20260510013542 44 290 5.0 10.0 0.00 0.00 0.00 84 1021.6
20260510013025 44 254 3.0 6.0 0.00 0.00 0.00 83 1021.5
20260510012529 45 198 4.0 6.0 0.00 0.00 0.00 83 1021.4
20260510012033 45 226 3.0 6.0 0.00 0.00 0.00 82 1021.3
20260510011539 45 225 3.0 10.0 0.00 0.00 0.00 82 1021.2
20260510011028 45 248 7.0 11.0 0.00 0.00 0.00 81 1021.0
20260510010529 45 301 5.0 11.0 0.00 0.00 0.00 81 1021.0
20260510010035 45 211 4.0 9.0 0.00 0.00 0.00 81 1021.0
20260510005540 45 207 2.0 5.0 0.00 0.00 0.00 81 1021.0
20260510005043 45 335 1.0 3.0 0.00 0.00 0.00 81 1021.1
20260510004527 45 316 1.0 3.0 0.00 0.00 0.00 81 1021.1
20260510004034 45 306 1.0 2.0 0.00 0.00 0.00 81 1021.1
20260510003541 45 329 0.0 2.0 0.00 0.00 0.00 80 1021.0
20260510003044 45 329 1.0 3.0 0.00 0.00 0.00 79 1021.0
20260510002527 46 330 1.0 4.0 0.00 0.00 0.00 79 1020.9
20260510002032 46 321 2.0 4.0 0.00 0.00 0.00 78 1020.9
20260510001541 46 335 1.0 3.0 0.00 0.00 0.00 77 1020.9
20260510001027 47 295 1.0 6.0 0.00 0.00 0.00 76 1020.8
20260510000550 47 316 3.0 7.0 0.00 0.00 0.00 75 1020.8
20260510000034 47 248 4.0 7.0 0.00 0.00 0.00 74 1020.8
20260509235540 47 356 3.0 6.0 0.00 0.00 0.00 74 1020.7
20260509235042 47 1 4.0 7.0 0.00 0.00 0.00 74 1020.5
20260509234526 47 354 4.0 7.0 0.00 0.00 0.00 73 1020.3
20260509234032 48 330 4.0 9.0 0.00 0.00 0.00 73 1020.3
20260509233536 48 6 5.0 8.0 0.00 0.00 0.00 73 1020.3
20260509233040 48 359 5.0 12.0 0.00 0.00 0.00 72 1020.2
20260509232604 48 360 6.0 12.0 0.00 0.00 0.00 72 1020.2
20260509232027 48 347 5.0 10.0 0.00 0.00 0.00 72 1020.2
20260509231551 48 345 6.0 9.0 0.00 0.00 0.00 73 1020.0
20260509231033 48 356 5.0 8.0 0.00 0.00 0.00 73 1019.9
20260509230557 48 4 4.0 8.0 0.00 0.00 0.00 73 1020.0
20260509230027 48 356 4.0 7.0 0.00 0.00 0.00 73 1020.1
20260509225531 48 20 5.0 9.0 0.00 0.00 0.00 73 1020.2
20260509225057 48 360 5.0 9.0 0.00 0.00 0.00 72 1020.3
20260509224540 48 348 5.0 8.0 0.00 0.00 0.00 73 1020.3
20260509224024 48 12 4.0 8.0 0.00 0.00 0.00 72 1019.9
20260509223530 48 319 5.0 8.0 0.00 0.00 0.00 72 1019.9
20260509223032 48 8 5.0 9.0 0.00 0.00 0.00 71 1019.7
20260509222535 49 316 5.0 9.0 0.00 0.00 0.00 71 1019.8
20260509222058 49 1 5.0 9.0 0.00 0.00 0.00 71 1019.8
20260509221543 49 1 5.0 10.0 0.00 0.00 0.00 70 1019.5